Location: Gleizolles
(44.4833°N, 6.7667°E)
Time: 15:34:47
(UTC+00:00)

Tiros 1 - Pass Details

Date: 27 June 2024
Orbit: 624 x 656 km, 48.4° (Epoch: 13 July)

Event Time Altitude Azimuth Distance (km) Brightness Sun altitude
Rises 21:39:49 0° 234° (SW) 2,893 10.4 -17.2°
Reaches altitude 10° 21:42:08 10° 232° (SW) 1,988 9.5 -17.4°
Maximum altitude 21:46:39 64° 151° (SSE) 694 7.0 -17.8°
Drops below altitude 10° 21:51:11 10° 71° (ENE) 2,000 9.6 -18.1°
Sets 21:53:32 0° 68° (ENE) 2,912 10.5 -18.3°
